Del Norte, CO

9:14 PM MDT on August 31, 2016 (GMT -0600)
Wolf Creek Pass

Weather History for KCPW - October, 2013

Change the Weather History Date:

Sunday, October 13, 2013

  Actual Average (KALS) Record (KALS)
Temperature  
Mean Temperature 32 °F 44 °F  
Max Temperature 35 °F 63 °F 77 °F (2015)
Min Temperature 28 °F 26 °F 0 °F (1969)
Degree Days  
Heating Degree Days 34 21  
Month to date heating degree days 239  
Since 1 July heating degree days 670  
Cooling Degree Days 0 0  
Month to date cooling degree days 0  
Year to date cooling degree days 51  
Moisture  
Dew Point 29 °F    
Average Humidity 92    
Maximum Humidity 100    
Minimum Humidity 75    
Precipitation  
Precipitation 0.10 in 0.02 in 0.26 in (2009)
Month to date precipitation 0.28  
Year to date precipitation 6.14  
Snow  
Snow 0.00 in 0.10 in 0.20 in (2004)
Month to date snowfall 0.4  
Since 1 July snowfall 0.4  
Since 1 September snowfall 0.4  
Snow Depth -    
Sea Level Pressure  
Sea Level Pressure 30.31 in    
Wind  
Wind Speed 18 mph (SSW)    
Max Wind Speed 26 mph    
Max Gust Speed 41 mph    
Visibility 8 miles    
Events Fog , Rain , Snow , Thunderstorm    
T = Trace of Precipitation, MM = Missing Value Source: NWS Daily Summary

Daily Weather History Graph

Daily Weather History Graph

Search for Another Location

Airport or City:

Trip Planner

Search our weather history database for the weather conditions in past years. The results will help you decide how hot, cold, wet, or windy it might be!

Date:

Astronomy

Oct. 13, 2013 Rise Set
Actual Time 7:13 AM MDT 6:32 PM MDT
Civil Twilight 6:47 AM MDT 6:58 PM MDT
Nautical Twilight 6:17 AM MDT 7:28 PM MDT
Astronomical Twilight 5:46 AM MDT 7:59 PM MDT
Moon 3:19 PM MDT (10/13) 1:33 AM MDT (10/13)
Length of Visible Light 12h 11m
Length of Day
11h 18m
Waxing Gibbous, 70% of the Moon is Illuminated
Oct 13
Waxing Gibbous
Oct 18
Full
Oct 26
Last Quarter
Nov 3
New
Nov 9
First Quarter

Hourly Weather History & Observations

Time (MDT) Temp. Windchill Dew Point Humidity Pressure Visibility Wind Dir Wind Speed Gust Speed Precip Events Conditions
12:05 AM 28.4 °F 18.5 °F 23.0 °F 80% 30.36 in 10.0 mi SSW 11.5 mph 27.6 mph N/A   Overcast
12:25 AM 30.2 °F 17.4 °F 23.0 °F 75% 30.36 in 10.0 mi SW 20.7 mph 32.2 mph N/A   Overcast
12:46 AM 30.2 °F 18.1 °F 24.8 °F 80% 30.36 in 10.0 mi SW 18.4 mph 29.9 mph N/A   Overcast
1:05 AM 28.4 °F 17.0 °F 23.0 °F 80% 30.36 in 10.0 mi SSW 15.0 mph 27.6 mph N/A   Overcast
1:26 AM 28.4 °F 17.0 °F 26.6 °F 93% 30.36 in 10.0 mi SW 15.0 mph 29.9 mph N/A   Overcast
1:45 AM 30.2 °F 20.2 °F 26.6 °F 86% 30.36 in 10.0 mi SSW 12.7 mph 32.2 mph N/A   Overcast
2:05 AM 30.2 °F 18.9 °F 26.6 °F 86% 30.36 in 10.0 mi SSW 16.1 mph 29.9 mph N/A   Overcast
2:26 AM 30.2 °F 17.1 °F 26.6 °F 86% 30.36 in 10.0 mi SSW 21.9 mph 35.7 mph N/A   Overcast
2:46 AM 28.4 °F 15.4 °F 26.6 °F 93% 30.35 in 10.0 mi SW 19.6 mph 31.1 mph N/A   Overcast
3:05 AM 30.2 °F 18.5 °F 26.6 °F 86% 30.35 in 10.0 mi SSW 17.3 mph 32.2 mph N/A   Overcast
3:26 AM 28.4 °F 14.4 °F 26.6 °F 93% 30.35 in 10.0 mi SW 23.0 mph 33.4 mph N/A   Overcast
3:46 AM 28.4 °F 14.1 °F 26.6 °F 93% 30.34 in 10.0 mi SW 24.2 mph 34.5 mph N/A   Overcast
4:06 AM 30.2 °F 17.4 °F 26.6 °F 86% 30.34 in 10.0 mi SW 20.7 mph 33.4 mph N/A   Overcast
4:26 AM 30.2 °F 17.4 °F 26.6 °F 86% 30.34 in 10.0 mi SSW 20.7 mph 34.5 mph N/A   Overcast
4:46 AM 30.2 °F 18.5 °F 26.6 °F 86% 30.35 in 10.0 mi SSW 17.3 mph 31.1 mph N/A   Overcast
5:06 AM 30.2 °F 18.5 °F 26.6 °F 86% 30.35 in 10.0 mi SSW 17.3 mph 27.6 mph N/A   Overcast
5:26 AM 30.2 °F 17.4 °F 26.6 °F 86% 30.35 in 10.0 mi SW 20.7 mph 31.1 mph N/A   Overcast
5:46 AM 30.2 °F 19.3 °F 26.6 °F 86% 30.35 in 10.0 mi SSW 15.0 mph 27.6 mph N/A   Overcast
6:06 AM 30.2 °F 18.9 °F 26.6 °F 86% 30.35 in 10.0 mi SSW 16.1 mph 28.8 mph N/A   Overcast
6:26 AM 30.2 °F 19.8 °F 26.6 °F 86% 30.35 in 10.0 mi SW 13.8 mph 31.1 mph N/A   Overcast
6:46 AM 30.2 °F 19.8 °F 26.6 °F 86% 30.35 in 10.0 mi SSW 13.8 mph 31.1 mph N/A   Overcast
7:06 AM 30.2 °F 17.4 °F 26.6 °F 86% 30.35 in 10.0 mi SSW 20.7 mph 33.4 mph N/A   Overcast
7:26 AM 30.2 °F 19.3 °F 26.6 °F 86% 30.36 in 10.0 mi SSW 15.0 mph 28.8 mph N/A   Overcast
7:46 AM 30.2 °F 17.8 °F 28.4 °F 93% 30.36 in 10.0 mi SSW 19.6 mph 27.6 mph N/A   Overcast
8:06 AM 32.0 °F 20.5 °F 28.4 °F 87% 30.37 in 10.0 mi SSW 18.4 mph 32.2 mph N/A   Overcast
8:26 AM 32.0 °F 20.1 °F 28.4 °F 87% 30.37 in 10.0 mi SSW 19.6 mph 33.4 mph N/A   Overcast
8:45 AM 32.0 °F 19.8 °F 28.4 °F 87% 30.37 in 10.0 mi SSW 20.7 mph 36.8 mph N/A   Overcast
9:06 AM 32.0 °F 19.8 °F 28.4 °F 87% 30.37 in 10.0 mi SW 20.7 mph 34.5 mph N/A   Overcast
9:26 AM 32.0 °F 19.2 °F 28.4 °F 87% 30.37 in 10.0 mi SSW 23.0 mph 38.0 mph N/A   Overcast
9:46 AM 32.0 °F 18.4 °F 28.4 °F 87% 30.37 in 10.0 mi SW 26.5 mph 40.3 mph N/A   Overcast
10:06 AM 32.0 °F 19.2 °F 28.4 °F 87% 30.37 in 10.0 mi SSW 23.0 mph 36.8 mph N/A   Overcast
10:26 AM 32.0 °F 19.8 °F 28.4 °F 87% 30.38 in 10.0 mi SW 20.7 mph 32.2 mph N/A   Overcast
10:46 AM 32.0 °F 19.8 °F 28.4 °F 87% 30.37 in 10.0 mi SSW 20.7 mph 34.5 mph N/A   Overcast
11:06 AM 32.0 °F 20.1 °F 30.2 °F 93% 30.37 in 10.0 mi SSW 19.6 mph 41.4 mph N/A   Overcast
11:26 AM 32.0 °F 20.1 °F 30.2 °F 93% 30.37 in 10.0 mi SW 19.6 mph 35.7 mph N/A   Overcast
11:46 AM 32.0 °F 20.1 °F 30.2 °F 93% 30.36 in 10.0 mi SW 19.6 mph 31.1 mph N/A   Overcast
12:06 PM 32.0 °F 19.2 °F 30.2 °F 93% 30.36 in 10.0 mi SSW 23.0 mph 34.5 mph N/A   Overcast
12:26 PM 32.0 °F 20.1 °F 30.2 °F 93% 30.35 in 10.0 mi SSW 19.6 mph 33.4 mph N/A   Overcast
12:46 PM 32.0 °F 20.1 °F 32.0 °F 100% 30.34 in 3.0 mi SSW 19.6 mph 32.2 mph N/A Snow Light Snow
1:05 PM 32.0 °F 20.8 °F 32.0 °F 100% 30.34 in 3.0 mi SW 17.3 mph 29.9 mph N/A Snow Light Snow
1:26 PM 32.0 °F 20.8 °F 32.0 °F 100% 30.33 in 0.2 mi SSW 17.3 mph 29.9 mph 0.02 in Fog Fog
1:46 PM 32.0 °F 20.8 °F 32.0 °F 100% 30.32 in 1.5 mi SSW 17.3 mph 32.2 mph 0.02 in   Overcast
2:05 PM 32.0 °F 21.2 °F 32.0 °F 100% 30.31 in 7.0 mi SSW 16.1 mph 28.8 mph N/A   Overcast
2:25 PM 33.8 °F 22.5 °F 32.0 °F 93% 30.30 in 10.0 mi SSW 19.6 mph 32.2 mph N/A   Overcast
2:46 PM 35.6 °F 28.0 °F 32.0 °F 87% 30.29 in 10.0 mi SSW 10.4 mph 34.5 mph N/A   Overcast
3:02 PM 33.8 °F 24.3 °F 32.0 °F 93% 30.29 in 10.0 mi SSW 13.8 mph 27.6 mph N/A Rain Light Rain
3:25 PM 33.8 °F 25.3 °F 32.0 °F 93% 30.29 in 10.0 mi SW 11.5 mph 28.8 mph 0.01 in   Overcast
3:46 PM 33.8 °F 22.2 °F 32.0 °F 93% 30.28 in 7.0 mi SSW 20.7 mph 38.0 mph 0.01 in Thunderstorm Thunderstorm
4:06 PM 35.6 °F 25.5 °F 30.2 °F 81% 30.27 in 10.0 mi SSW 17.3 mph 32.2 mph N/A   Overcast
4:26 PM 33.8 °F 22.5 °F 30.2 °F 87% 30.26 in 2.5 mi SW 19.6 mph 35.7 mph N/A Snow Light Snow
4:45 PM 33.8 °F 24.8 °F 30.2 °F 87% 30.26 in 10.0 mi SSW 12.7 mph 24.2 mph N/A Thunderstorm Thunderstorm
5:05 PM 33.8 °F 22.8 °F 30.2 °F 87% 30.24 in 10.0 mi SSW 18.4 mph 33.4 mph N/A   Overcast
5:22 PM 33.8 °F 22.2 °F 30.2 °F 87% 30.24 in 10.0 mi SSW 20.7 mph 33.4 mph N/A Thunderstorm Overcast
5:46 PM 32.0 °F 20.8 °F 32.0 °F 100% 30.24 in 0.2 mi SSW 17.3 mph 40.3 mph 0.04 in Snow , Thunderstorm Light Thunderstorms and Snow
6:05 PM 32.0 °F 19.5 °F 32.0 °F 100% 30.23 in 0.2 mi SW 21.9 mph 31.1 mph N/A Snow , Thunderstorm Light Thunderstorms and Snow
6:23 PM 32.0 °F 20.8 °F 32.0 °F 100% 30.24 in 1.0 mi SSW 17.3 mph 41.4 mph 0.02 in Snow , Thunderstorm Light Thunderstorms and Snow
6:36 PM 32.0 °F 20.5 °F 32.0 °F 100% 30.25 in 0.5 mi SSW 18.4 mph 26.5 mph 0.03 in Snow , Thunderstorm Light Thunderstorms and Snow
7:04 PM 32.0 °F 21.2 °F 32.0 °F 100% 30.24 in 0.2 mi SSW 16.1 mph 29.9 mph N/A Snow , Thunderstorm Light Thunderstorms and Snow
7:25 PM 32.0 °F 21.2 °F 32.0 °F 100% 30.24 in 0.2 mi SW 16.1 mph 23.0 mph N/A Snow , Thunderstorm Light Thunderstorms and Snow
7:45 PM 32.0 °F 20.8 °F 32.0 °F 100% 30.24 in 0.2 mi SW 17.3 mph 27.6 mph N/A Fog , Thunderstorm Light Freezing Fog
8:05 PM 32.0 °F 22.1 °F 32.0 °F 100% 30.24 in 0.2 mi SW 13.8 mph 27.6 mph N/A Snow , Thunderstorm Thunderstorms and Snow
8:25 PM 32.0 °F 20.8 °F 32.0 °F 100% 30.24 in 0.5 mi SSW 17.3 mph 32.2 mph N/A Fog , Thunderstorm Light Freezing Fog
8:45 PM 32.0 °F 22.1 °F 32.0 °F 100% 30.25 in 1.5 mi SSW 13.8 mph 25.3 mph N/A Thunderstorm Overcast
9:05 PM 32.0 °F 20.5 °F 32.0 °F 100% 30.26 in 5.0 mi SSW 18.4 mph 28.8 mph N/A Snow , Thunderstorm Light Thunderstorms and Snow
9:22 PM 32.0 °F 22.1 °F 32.0 °F 100% 30.24 in 10.0 mi SW 13.8 mph 26.5 mph N/A   Overcast
9:45 PM 32.0 °F 22.1 °F 32.0 °F 100% 30.24 in 10.0 mi SSW 13.8 mph 25.3 mph N/A Snow Light Snow
10:05 PM 32.0 °F 20.8 °F 32.0 °F 100% 30.24 in 10.0 mi SW 17.3 mph 28.8 mph N/A   Overcast
10:25 PM 32.0 °F 19.8 °F 32.0 °F 100% 30.23 in 10.0 mi SW 20.7 mph 31.1 mph N/A   Overcast
10:46 PM 30.2 °F 18.5 °F 30.2 °F 100% 30.24 in 10.0 mi SSW 17.3 mph 31.1 mph N/A Thunderstorm Overcast
11:06 PM 30.2 °F 17.8 °F 30.2 °F 100% 30.22 in 10.0 mi SSW 19.6 mph 33.4 mph N/A Thunderstorm Overcast
11:26 PM 30.2 °F 17.8 °F 28.4 °F 93% 30.22 in 10.0 mi SSW 19.6 mph 32.2 mph N/A   Overcast
11:46 PM 30.2 °F 17.4 °F 28.4 °F 93% 30.21 in 10.0 mi SW 20.7 mph 32.2 mph N/A   Overcast